Regional Weather Roundup
Issued by NWS

Home | Current Version | Previous Version | Graphics & Text | Print | Product List | Glossary On
Versions: 1 2 3 4 5 6 7 8 9 10 11 12 13 14 15 16 17 18 19 20 21 22 23 24 25 26 27 28 29 30 31 32 33 34 35 36 37 38 39 40 41 42 43 44 45 46 47 48 49 50
000
ASUS43 KLSX 241859
RWRMO

WEATHER SUMMARY FOR MISSOURI
NATIONAL WEATHER SERVICE SPRINGFIELD MO
100 PM CST WED DEC 24 2014

NOTE: "FAIR" INDICATES FEW OR NO CLOUDS BELOW 12,000 FEET WITH NO
       SIGNIFICANT WEATHER AND/OR OBSTRUCTIONS TO VISIBILITY.
       CURRENT SKY AND/OR WEATHER CONDITIONS ARE NOT AVAILABLE FOR
       CHILLICOTHE AND FARMINGTON.

MOZ001>031-035>038-043-044-053-054-242000-
...NORTHERN AND WESTERN MISSOURI...

CITY           SKY/WX    TMP DP  RH WIND       PRES   REMARKS
KANSAS CTY INT CLOUDY    36  32  85 NW10      29.81F WCI  28
KANSAS C DTWN  CLOUDY    38  31  76 W10G21    29.82F
LEE`S SUMMIT   CLOUDY    36  32  85 W10       29.81F WCI  28
ST JOSEPH      CLOUDY    37  32  82 NW15      29.82F WCI  28
CHILLICOTHE      N/A     37  32  82 NW10      29.77F WCI  30
KIRKSVILLE     CLOUDY    36  32  85 NW16      29.71F WCI  26

$$
MOZ066>068-077>081-088>096-101>105-242000-
...SOUTHWEST MISSOURI...

CITY           SKY/WX    TMP DP  RH WIND       PRES   REMARKS
SPRINGFIELD    CLOUDY    37  32  82 NW14      29.80S WCI  28
JOPLIN         CLOUDY    38  32  79 NW14      29.87F WCI  30

$$
MOZ032>034-039>042-045>050-055>058-069>072-242000-
...CENTRAL MISSOURI...

CITY           SKY/WX    TMP DP  RH WIND       PRES   REMARKS
COLUMBIA       CLOUDY    36  34  92 NW13      29.72S WCI  27
JEFFERSON CITY LGT RAIN  38  34  85 W12G21    29.74S
ROLLA          LGT SNOW  35  32  88 NW12G21   29.70S FOG     WCI  27
SEDALIA        CLOUDY    38  33  82 NW10      29.77F
OSAGE BEACH    CLOUDY    37  30  75 NW12      29.75F WCI  30

$$
MOZ051-052-059>065-242000-
...EAST CENTRAL MISSOURI...

CITY           SKY/WX    TMP DP  RH WIND       PRES   REMARKS
ST LOUIS INTL  LGT RAIN  40  34  79 W10       29.66F
SPIRIT OF STL  CLOUDY    38  35  89 W8        29.67F
ST CHARLES     CLOUDY    38  35  89 W10       29.66F FOG

$$
MOZ072>076-082>087-097>100-106>115-242000-
...SOUTH CENTRAL AND SOUTHEAST MISSOURI...

CITY           SKY/WX    TMP DP  RH WIND       PRES   REMARKS
CAPE GIRARDEAU CLOUDY    42  37  82 W8        29.69F
FARMINGTON     CLOUDY    37  34  87 W8        29.69S
POPLAR BLUFF   LGT RAIN  43  34  70 W10       29.71F
WEST PLAINS    CLOUDY    38  33  82 W10       29.74F

$$


USA.gov is the U.S. government's official web portal to all federal, state and local government web resources and services.